Weather Roundup
Issued by NWS Corpus Christi, TX

Home | Current Version | Previous Version | Text Only | Print | Product List | Glossary On
Versions: 1 2 3 4 5 6 7 8 9 10 11 12 13 14 15 16 17 18 19 20 21 22 23 24 25 26 27 28 29 30 31 32 33 34 35 36 37 38 39 40 41 42 43 44 45 46 47 48 49 50
000
ASUS44 KCRP 260110
HRRCRP

SOUTH TEXAS REGIONAL WEATHER ROUNDUP
NATIONAL WEATHER SERVICE CORPUS CHRISTI TX
800 PM CDT FRI JUL 25 2014


TXZ229>244-260200-
...CORPUS CHRISTI AREA OBSERVATIONS...

CITY           SKY/WX    TMP DP  RH WIND       PRES   REMARKS
CORPUS CHRISTI PTCLDY    84  75  74 SE17      29.94S HX  92
NAS CORPUS CHR CLEAR     85  78  80 SE17G25   29.95S HX  96
ROCKPORT       PTCLDY    85  76  74 SE10G20   29.94S HX  94
KINGSVILLE NAS CLEAR     86  76  71 SE14      29.93S HX  96
ALICE          PTCLDY    86  73  65 SE14      29.92S HX  93
FALFURRIAS     PTCLDY    87  70  57 E10       29.90R HX  92
$$

...VICTORIA AREA OBSERVATIONS...

CITY           SKY/WX    TMP DP  RH WIND       PRES   REMARKS
VICTORIA       CLEAR     87  75  67 S15       29.96R HX  96
BEEVILLE       FAIR      87  68  52 SE16      29.94R HX  90
PLEASANTON     CLEAR     89  70  53 S10       29.93S HX  93
SAN ANTONIO    PTCLDY    92  65  40 SE8       29.94R HX  94
$$

...LAREDO AREA OBSERVATIONS...

CITY           SKY/WX    TMP DP  RH WIND       PRES   REMARKS
LAREDO         MOCLDY    86  73  64 E17G23    29.91S HX  93
COTULLA        MOCLDY    84  71  65 SE9       29.91F
DEL RIO        PTCLDY    97  64  33 SE15      29.87S HX  99
MCALLEN        CLEAR     91  64  40 SE21G31   29.91R HX  92
HEBBRONVILLE   CLOUDY    88  72  57 NE12      29.91S HX  94
$$

...OTHER TEXAS OBSERVATIONS...

CITY           SKY/WX    TMP DP  RH WIND       PRES   REMARKS
BROWNSVILLE    CLEAR     85  74  69 SE20      29.95S HX  92
HOUSTON        MOCLDY    87  75  67 S13       29.96R HX  96
COL. STATION   CLEAR     89  70  53 SE8       29.95R HX  94
AUSTIN         PTCLDY    93  66  40 E5        29.92S HX  96
WACO           PTCLDY    92  67  43 SE10      29.93R HX  95
FORT WORTH     PTCLDY    96  63  33 S9        29.90S HX  97
WICHITA FALLS  CLEAR     93  62  35 S10       29.87R HX  93
LUBBOCK        PTCLDY    94  46  19 SE13      29.99R HX  90
EL PASO        MOSUNNY   97  45  16 SE8       29.97F HX  93
$$

...MARINE OBSERVATIONS...

STATION/POSITION TIME  SKY/WX   TEMP    WIND        PRES    VSBY  WAVE   SWELL
                                AIR SEA DIR/SP/G                  HT/PER HT/PER
                 (UTC)          (F)     (DEG/KT/KT) (MB)    (MI)  (FT/S) (FT/S)
PORT ARANSAS     0100            83 87  140/ 15/ 16 1015.0F
BUOY 90 E PORT A 0100            84 85  180/ 10/ 12 1015.7S         2/ 4   2/ 5
BUOY 45 SE BAFFI 0100            84 83  160/ 14/ 16 1014.1F         2/ 3
BUOY 200 E PT IS 0100            84 86  160/  6/  8 1016.1R         1/ 9   2/ 9
BUOY 15 E GALVES NOT AVBL
$$


USA.gov is the U.S. government's official web portal to all federal, state and local government web resources and services.